Probability
0 0 0 0 0 0 0 0 0 0 0 0 0 0 0 0 0 0 0 0 0 0 0 0 0 0 0 0 0 0 0 0 0 0 0 0 0 0 0 0 0 0 0 0
0 0 0 0 0 0 0 0 0 0 0 0 0 0 0 0 0 0 0 0 0 0 0 0 0 0 0 0 0 0 0 0 0 0 0 0 0 0 0 0 0 0 0 0
0 0 0 0 0 0 0 0 0 0 0 0 0 0 0 0 0 0 0 0 0 0 0 0 0 0 0 0 0 0 0 0 0 0 0 0 0 0 0 0 0 0 0 0
0 0 0 0 0 0 0 0 0 0 0 0 0 0 0 0 0 0 0 0 0 0 0 0 0 0 0 0 0 0 0 0 0 0 0 0 0 0 0 0 0 0 0 0
0 0 0 0 0 0 0 0 0 0 0 0 0 0 0 0 0 0 0 0 0 0 0 0 0 0 0 0 0 0 0 0 0 0 0 0 0 0 0 0 0 0 0 0
0 0 0 0 0 0 0 0 0 0 0 0 0 0 0 0 0 0 0 0 0 0 0 0 0 0 0 0 0 0 0 0 0 0 0 0 0 0 0 0 0 0 0 0
0 0 0 0 0 0 0 0 0 0 0 0 0 0 0 0 0 0 0 0 0 0 0 0 0 0 0 0 0 0 0 0 0 0 0 0 0 0 0 0 0 0 0 0
0 0 0 0 0 0 0 0 0 0 0 0 0 0 0 0 0 0 0 0 0 0 0 0 0 0 0 0 0 0 0 0 0 0 0 0 0 0 0 0 0 0 0 0
0 0 0 0 0 0 0 0 0 0 0 0 0 0 0 0 0 0 0 0 0 0 0 0 0 0 0 0 0 0 0 0 0 0 0 0 0 0 0 0 0 0 0 0
0 0 0 0 0 0 0 0 0 0 0 0 0 0 0 0 0 0 0 0 0 0 0 0 0 0 0 0 0 0 0 0 0 0 0 0 0 0 0 0 0 0 0 0
0 0 0 0 0 0 0 0 0 0 0 0 0 0 0 0 0 0 0 0 0 0 0 0 0 0 0 0 0 0 0 0 0 0 0 0 0 0 0 0 0 0 0 0
0 0 0 0 0 0 0 0 0 0 0 0 0 0 0 0 0 0 0 0 0 0 0 0 0 0 0 0 0 0 0 0 0 0 0 0 0 0 0 0 0 0 0 0
0 0 0 0 0 0 0 0 0 0 0 0 0 0 0 0 0 0 0 0 0 0 0 0 0 0 0 0 0 0 0 0 0 0 0 0 0 0 0 0 0 0 0 0
0 0 0 0 0 0 0 0 0 0 0 0 0 0 0 0 0 0 0 0 0 0 0 0 0 0 0 0 0 0 0 0 0 0 0 0 0 0 0 0 0 0 0 0
0 0 0 0 0 0 0 0 0 0 0 0 0 0 0 0 0 0 0 0 0 0 0 0 0 0 0 0 0 0 0 0 0 0 0 0 0 0 0 0 0 0 0 0
0 0 0 0 0 0 0 0 0 0 0 0 0 0 0 0 0 0 0 0 0 0 0 0 0 0 0 0 0 0 0 0 0 0 0 0 0 0 0 0 0 0 0 0
0 0 0 0 0 0 0 0 0 0 0 0 0 0 0 0 0 0 0 0 0 0 0 0 0 0 0 0 0 0 0 0 0 0 0 0 0 0 0 0 0 0 0 0
0 0 0 0 0 0 0 0 0 0 0 0 0 0 0 0 0 0 0 0 0 0 0 0 0 0 0 0 0 0 0 0 0 0 0 0 0 0 0 0 0 0 0 0
0 0 0 0 0 0 0 0 0 0 0 0 0 0 0 0 0 0 0 0 0 0 0 0 0 0 0 0 0 0 0 0 0 0 0 0 0 0 0 0 0 0 0 0
0 0 0 0 0 0 0 0 0 0 0 0 0 0 0 0 0 0 0 0 0 0 0 0 0 0 0 0 0 0 0 0 0 0 0 0 0 0 0 0 0 0 0 0
0 0 0 0 0 0 0 0 0 0 0 0 0 0 0 0 0 0 0 0 0 0 0 0 0 0 0 0 0 0 0 0 0 0 0 0 0 0 0 0 0 0 0 0
0 0 0 0 0 0 0 0 0 0 0 0 0 0 0 0 0 0 0 0 0 0 0 0 0 0 0 0 0 0 0 0 0 0 0 0 0 0 0 0 0 0 0 0
0 0 0 0 0 0 0 0 0 0 0 0 0 0 0 0 0 0 0 0 0 0 0 0 0 0 0 0 0 0 0 0 0 0 0 0 0 0 0 0 0 0 0 0
0 0 0 0 0 0 0 0 0 0 0 0 0 0 0 0 0 0 0 0 0 0 0 0 0 0 0 0 0 0 0 0 0 0 0 0 0 0 0 0 0 0 0 0
0 0 0 0 0 0 0 0 0 0 0 0 0 0 0 0 0 0 0 0 0 0 0 0 0 0 0 0 0 0 0 0 0 0 0 0 0 0 0 0 0 0 0 0
0 0 0 0 0 0 0 0 0 0 0 0 0 0 0 0 0 0 0 0 0 0 0 0 0 0 0 0 0 0 0 0 0 0 0 0 0 0 0 0 0 0 0 0
Height
5824 5826 5825 5825 5825 5825 5825 5825 5825 5824 5824 5824 5824 5823 5822 5821 5820 5819 5817 5816 5814 5813 5811 5810 5808 5806 5804 5803 5801 5799 5797 5796 5794 5792 5791 5789 5787 5785 5782 5780 5778 5776 5773 5771
5821 5820 5821 5821 5821 5821 5820 5821 5820 5820 5820 5820 5820 5820 5819 5817 5816 5815 5813 5812 5810 5809 5807 5805 5803 5801 5799 5797 5795 5793 5791 5789 5788 5786 5784 5782 5780 5777 5775 5772 5770 5767 5764 5762
5815 5816 5816 5816 5816 5816 5816 5816 5816 5816 5816 5816 5816 5816 5815 5814 5812 5810 5809 5807 5805 5804 5802 5800 5799 5796 5794 5791 5789 5787 5784 5783 5781 5779 5777 5774 5772 5770 5767 5764 5761 5758 5755 5753
5810 5811 5812 5812 5812 5812 5812 5812 5812 5812 5812 5812 5813 5812 5811 5809 5808 5806 5804 5802 5800 5799 5797 5795 5793 5790 5788 5785 5783 5780 5778 5776 5774 5771 5769 5766 5764 5761 5759 5756 5753 5749 5746 5743
5806 5807 5807 5807 5808 5808 5808 5808 5808 5808 5808 5808 5807 5807 5807 5805 5803 5802 5800 5797 5795 5793 5791 5789 5787 5784 5781 5778 5776 5774 5772 5769 5767 5764 5761 5759 5756 5753 5750 5747 5743 5740 5736 5732
5801 5802 5802 5803 5803 5804 5804 5804 5804 5804 5804 5804 5803 5802 5802 5800 5798 5796 5794 5792 5789 5787 5785 5782 5780 5777 5774 5772 5770 5768 5765 5762 5759 5756 5753 5751 5748 5744 5741 5737 5734 5730 5726 5721
5797 5798 5798 5798 5799 5799 5800 5800 5800 5800 5800 5800 5798 5797 5797 5795 5792 5790 5788 5786 5783 5781 5778 5776 5773 5770 5768 5765 5763 5761 5758 5755 5752 5749 5746 5742 5739 5735 5731 5727 5723 5719 5714 5709
5792 5793 5794 5794 5795 5795 5795 5795 5796 5795 5795 5794 5793 5792 5792 5789 5786 5784 5782 5779 5777 5774 5772 5769 5766 5764 5761 5759 5756 5754 5751 5748 5744 5741 5737 5733 5729 5725 5721 5716 5712 5707 5701 5696
5787 5789 5789 5789 5790 5790 5790 5790 5790 5789 5788 5788 5788 5787 5785 5782 5780 5777 5775 5772 5770 5768 5765 5762 5760 5757 5754 5752 5749 5746 5743 5739 5736 5732 5728 5723 5719 5714 5709 5704 5698 5692 5687 5681
5782 5784 5784 5784 5785 5785 5785 5785 5785 5783 5782 5781 5782 5781 5779 5776 5773 5771 5768 5765 5763 5761 5758 5755 5752 5750 5747 5744 5741 5737 5734 5730 5726 5721 5717 5712 5706 5701 5695 5689 5683 5677 5670 5663
5776 5778 5779 5779 5779 5779 5780 5780 5778 5777 5776 5775 5774 5777 5773 5769 5766 5763 5761 5758 5756 5753 5751 5747 5745 5742 5739 5735 5732 5728 5724 5719 5715 5710 5705 5699 5693 5687 5680 5674 5666 5659 5652 5643
5770 5772 5773 5774 5774 5773 5773 5773 5772 5771 5770 5767 5767 5771 5765 5761 5757 5755 5753 5751 5748 5745 5742 5739 5736 5733 5730 5726 5722 5718 5713 5708 5703 5697 5691 5685 5679 5672 5664 5656 5648 5640 5631 5622
5764 5765 5767 5768 5769 5768 5766 5766 5765 5763 5762 5760 5760 5763 5756 5753 5749 5747 5745 5743 5740 5737 5734 5731 5727 5724 5720 5716 5711 5707 5701 5696 5690 5684 5677 5670 5662 5655 5646 5638 5628 5619 5610 5600
5757 5758 5760 5761 5760 5760 5759 5759 5758 5756 5754 5753 5754 5753 5749 5744 5741 5739 5737 5734 5731 5728 5725 5721 5718 5714 5709 5705 5700 5695 5689 5682 5676 5669 5661 5653 5645 5636 5627 5617 5608 5597 5587 5577
5750 5751 5752 5753 5752 5751 5752 5752 5750 5748 5746 5744 5745 5743 5741 5736 5733 5731 5728 5725 5722 5718 5715 5711 5708 5703 5699 5693 5688 5682 5675 5668 5660 5653 5644 5636 5626 5616 5606 5596 5586 5575 5563 5552
5742 5743 5744 5745 5744 5742 5743 5744 5742 5739 5737 5736 5734 5733 5731 5728 5725 5721 5718 5715 5712 5709 5705 5701 5697 5692 5687 5681 5675 5669 5661 5653 5645 5636 5627 5617 5607 5597 5585 5574 5563 5552 5540 5529
5735 5735 5735 5736 5735 5733 5735 5737 5734 5732 5730 5728 5725 5724 5721 5718 5715 5712 5709 5706 5702 5699 5695 5691 5686 5680 5674 5668 5661 5654 5646 5637 5628 5618 5608 5597 5586 5576 5564 5552 5540 5528 5517 5506
5727 5727 5725 5725 5726 5725 5729 5726 5725 5722 5721 5719 5716 5713 5711 5708 5705 5702 5699 5696 5692 5688 5684 5679 5673 5667 5661 5653 5646 5638 5629 5619 5609 5599 5588 5576 5565 5554 5542 5530 5517 5505 5494 5483
5718 5718 5716 5715 5714 5714 5718 5717 5714 5712 5711 5709 5706 5704 5701 5698 5695 5692 5689 5685 5681 5676 5672 5666 5660 5653 5646 5638 5630 5621 5612 5601 5591 5580 5568 5556 5544 5532 5520 5508 5496 5484 5473 5463
5710 5709 5708 5706 5704 5704 5708 5707 5704 5702 5701 5700 5696 5693 5691 5688 5686 5683 5678 5674 5669 5664 5658 5652 5646 5639 5631 5622 5613 5604 5594 5583 5572 5561 5549 5536 5522 5510 5498 5486 5475 5464 5453 5444
5700 5699 5698 5696 5693 5694 5696 5694 5693 5693 5692 5689 5686 5683 5681 5678 5675 5672 5667 5662 5657 5651 5645 5639 5631 5623 5614 5605 5596 5586 5575 5564 5553 5541 5529 5516 5502 5489 5478 5467 5457 5446 5437 5429
5689 5688 5688 5686 5684 5686 5684 5683 5682 5681 5679 5677 5674 5672 5670 5667 5663 5659 5654 5649 5644 5638 5631 5624 5616 5607 5597 5587 5578 5568 5557 5547 5535 5523 5510 5498 5485 5471 5460 5450 5441 5431 5422 5414
5678 5678 5677 5677 5677 5675 5673 5671 5670 5669 5668 5666 5663 5661 5658 5655 5651 5646 5641 5636 5630 5623 5616 5608 5599 5591 5581 5569 5559 5549 5538 5527 5516 5504 5491 5479 5468 5456 5445 5435 5426 5418 5409 5400
5667 5666 5666 5665 5665 5663 5662 5660 5660 5658 5657 5654 5652 5649 5646 5642 5638 5633 5628 5622 5615 5608 5600 5591 5582 5573 5564 5553 5541 5529 5518 5507 5496 5485 5473 5462 5451 5442 5432 5422 5413 5404 5396 5388
5656 5655 5654 5653 5653 5652 5651 5650 5649 5648 5646 5643 5640 5637 5633 5629 5624 5619 5613 5607 5600 5592 5583 5574 5565 5556 5546 5535 5524 5511 5499 5488 5478 5467 5456 5446 5437 5427 5419 5411 5402 5393 5385 5376
5645 5644 5643 5643 5643 5642 5641 5640 5638 5636 5634 5631 5628 5624 5619 5615 5610 5604 5598 5591 5583 5575 5566 5557 5548 5538 5528 5518 5507 5494 5482 5470 5460 5450 5441 5432 5423 5415 5406 5399 5393 5384 5375 5367
Wind_Speed
21 22 23 22 22 22 22 21 22 21 20 19 19 19 20 19 19 20 20 21 22 23 23 23 24 25 26 26 27 27 28 28 29 30 30 31 32 33 35 37 38 40 42 43
21 22 22 22 22 21 21 20 20 20 19 17 18 18 18 18 18 19 21 22 23 23 24 24 25 26 26 27 28 28 29 29 29 30 30 31 32 33 35 37 38 40 42 44
22 22 22 21 21 20 19 19 18 18 18 17 17 16 17 17 19 20 22 23 24 24 24 25 26 27 28 29 30 30 30 31 31 31 31 32 33 34 36 38 39 41 42 44
22 22 21 20 20 19 18 18 17 17 18 18 18 17 17 18 19 21 23 24 25 26 26 27 28 29 30 30 31 31 31 31 31 32 32 33 34 35 37 38 40 41 43 44
22 21 21 20 19 19 18 17 17 17 18 18 18 19 18 19 21 22 24 25 27 27 28 29 29 30 30 30 30 30 30 30 30 31 32 33 34 35 37 38 40 41 43 45
22 22 21 20 20 19 18 18 18 18 18 18 19 20 21 20 22 24 25 26 27 28 29 30 30 29 30 30 30 30 29 29 30 31 32 34 35 36 38 40 41 43 45 47
23 22 21 21 20 20 19 19 19 19 19 19 20 22 22 22 23 25 26 27 28 29 29 29 29 29 29 30 30 29 29 30 32 33 35 36 37 39 40 42 44 46 48 50
22 21 21 21 21 20 20 21 21 22 21 21 22 22 23 24 25 26 27 28 29 30 29 28 29 29 30 30 30 30 32 33 35 36 38 40 42 43 45 47 49 51 53 56
22 22 22 22 21 21 21 22 23 24 24 23 23 23 24 26 28 29 30 30 30 30 29 29 29 30 31 31 32 34 35 37 38 40 42 44 46 48 50 53 55 58 60 63
23 23 23 23 23 23 24 24 25 26 28 27 25 24 26 28 29 30 31 30 30 30 30 30 31 32 33 35 36 37 39 41 43 45 47 49 52 54 57 59 62 64 67 69
25 25 24 24 25 25 26 26 27 29 30 30 29 26 28 30 31 32 32 31 31 31 32 33 35 35 36 38 39 41 43 45 47 50 52 55 57 60 62 65 68 70 72 75
27 27 26 26 27 28 28 28 30 31 32 32 32 30 30 31 33 34 33 32 33 34 35 36 37 38 40 41 43 45 47 50 52 55 57 60 62 65 68 70 73 75 77 80
29 29 28 28 29 30 30 30 31 33 34 34 33 30 31 33 35 35 34 34 35 36 38 39 40 41 43 45 47 49 52 55 57 60 62 65 68 70 73 75 78 80 82 83
31 31 31 31 31 32 32 32 33 34 35 36 32 31 32 35 36 36 35 36 38 39 40 41 43 45 47 49 51 54 56 59 62 65 67 70 73 75 78 80 81 83 85 86
33 33 32 32 33 34 34 33 34 36 36 37 34 32 32 35 36 37 38 39 40 41 43 44 46 48 50 52 55 58 60 63 66 69 72 75 77 79 81 83 84 85 86 87
35 35 35 34 35 36 36 34 35 37 37 37 37 35 34 35 37 38 40 41 42 44 45 47 49 51 54 56 59 62 64 68 71 73 76 78 80 82 84 85 86 87 87 86
35 36 37 37 36 39 38 35 36 37 38 38 38 36 36 36 38 39 41 42 44 46 47 49 52 54 57 60 63 66 68 72 74 77 79 81 83 84 85 87 87 87 86 84
36 36 39 40 40 41 38 37 37 37 38 38 38 37 37 38 39 41 42 44 46 48 50 52 55 58 61 64 67 69 72 75 78 80 81 83 85 86 87 87 86 85 82 79
37 38 40 42 43 43 39 38 38 39 39 38 38 38 39 40 41 43 45 46 49 51 53 56 58 61 64 67 70 73 76 78 80 82 83 84 86 87 87 86 83 79 76 72
39 40 42 43 45 45 41 40 40 41 40 38 39 40 40 42 43 44 47 49 51 54 56 59 62 64 67 70 73 76 78 80 81 83 84 85 86 86 85 82 77 73 69 66
41 42 44 45 46 46 44 43 42 41 40 40 40 41 42 43 45 47 49 51 54 56 59 62 64 67 70 74 76 78 79 81 83 84 85 85 85 82 79 75 70 67 64 60
43 45 45 46 47 46 45 43 42 42 42 42 42 42 44 45 47 49 51 54 56 59 62 65 67 70 73 75 77 79 80 82 84 84 85 83 80 76 72 68 64 61 59 56
44 44 45 45 45 45 44 43 43 43 42 42 43 44 46 47 49 52 54 56 59 62 65 68 71 73 74 76 78 80 82 84 84 84 82 78 74 69 66 63 60 57 55 53
44 44 44 44 44 44 44 43 43 42 43 43 45 46 48 50 52 54 56 59 62 65 68 70 72 74 75 77 79 82 83 84 84 81 77 72 68 64 60 57 55 53 52 51
44 44 45 45 44 44 44 43 43 43 44 45 46 48 50 52 55 57 60 63 66 68 70 72 73 75 77 79 81 83 84 83 80 76 71 67 63 59 55 52 51 50 49 50
43 44 44 43 43 43 42 42 43 44 45 47 49 51 53 55 58 60 63 66 68 70 71 73 75 77 79 81 82 82 82 79 75 71 66 62 57 54 51 49 47 46 47 47
Wind_Direction
263 265 266 268 269 270 270 270 270 272 274 275 276 278 281 282 282 283 284 285 287 288 289 290 290 290 290 289 288 287 286 285 285 284 284 284 283 283 283 283 283 283 283 282
261 263 266 267 267 268 268 268 269 272 273 273 275 277 278 278 279 281 282 283 285 287 289 289 289 290 290 290 289 288 287 287 287 287 287 287 286 286 285 285 285 285 285 285
261 264 266 267 267 267 266 266 268 271 274 274 274 274 276 277 278 280 281 284 286 289 290 291 291 291 290 290 290 290 290 290 290 290 290 289 288 288 287 287 287 287 287 287
260 263 265 266 265 264 265 266 266 268 272 275 277 277 277 279 279 281 283 286 288 289 291 291 290 290 289 289 289 290 291 292 292 292 292 291 291 290 290 289 289 288 288 288
258 260 263 264 264 264 264 266 266 268 271 274 278 280 280 281 281 284 286 287 288 289 290 290 289 288 288 289 290 292 293 294 294 294 294 293 293 293 293 292 291 291 290 290
256 259 261 262 263 263 264 266 267 269 273 276 279 282 283 285 285 287 287 287 288 289 289 289 289 288 288 290 291 293 294 295 296 296 296 296 295 295 295 294 294 294 293 293
254 256 258 260 261 262 265 267 270 271 274 279 281 282 285 288 287 288 288 288 289 289 290 289 288 288 289 290 292 294 295 296 297 297 298 298 298 298 298 297 296 296 295 295
253 254 256 258 260 263 266 269 273 277 279 281 282 285 288 289 290 289 289 289 290 290 289 287 286 287 289 291 293 295 296 298 299 299 299 299 299 299 299 298 297 297 296 296
251 252 255 258 261 264 267 271 275 279 281 283 284 287 287 289 289 289 290 290 290 289 288 286 287 288 290 293 294 296 297 299 300 300 300 300 300 300 299 299 298 298 297 296
252 254 256 260 263 266 269 273 277 280 284 285 285 287 289 290 289 289 290 290 290 290 288 287 288 290 293 295 296 297 299 300 301 301 302 301 301 301 301 300 300 299 298 297
254 256 258 262 266 269 273 275 277 280 283 286 287 289 292 291 290 289 289 290 290 289 288 289 291 293 295 297 298 300 301 302 302 303 302 302 302 302 301 301 300 299 299 298
256 258 260 263 267 271 273 275 278 281 283 285 288 292 292 291 290 289 289 289 290 290 290 291 293 295 297 299 300 301 302 303 303 303 303 303 303 302 302 301 301 300 299 299
257 260 263 265 268 270 273 275 278 281 283 286 289 293 292 289 287 288 288 289 289 290 291 293 295 297 299 300 301 302 303 303 303 304 304 303 303 303 302 302 301 301 300 300
258 261 265 267 269 271 273 277 279 281 284 285 287 288 286 285 285 287 288 288 288 290 292 294 296 298 300 301 302 303 303 304 304 304 304 304 304 304 304 303 303 302 302 301
260 263 266 268 269 272 275 278 280 282 284 286 288 286 284 283 285 286 287 288 289 291 293 296 297 299 300 301 302 303 304 304 305 305 306 306 305 305 305 304 304 304 303 303
262 265 266 267 270 273 275 279 281 283 285 287 288 287 283 282 283 285 286 287 289 292 294 296 298 299 300 301 303 304 304 305 306 306 306 306 306 306 306 306 305 305 305 305
264 267 268 269 270 272 276 279 281 282 284 286 287 286 283 282 282 283 285 287 289 292 295 296 298 299 301 302 303 305 305 306 307 307 308 308 308 307 307 307 307 307 307 306
266 268 271 272 272 273 278 280 281 282 283 284 285 283 283 283 283 284 286 288 291 293 295 297 299 301 302 303 304 305 306 307 308 309 309 309 309 309 309 309 309 308 307 306
266 269 272 274 275 275 278 281 282 282 283 284 283 283 282 283 284 286 288 291 293 295 297 299 300 302 303 304 305 306 308 309 309 310 310 310 310 310 310 310 310 309 308 307
266 268 271 274 276 277 279 279 281 282 283 283 282 282 282 284 285 288 290 293 295 297 298 300 302 303 304 305 307 308 309 310 310 311 311 311 312 312 311 311 310 309 309 308
265 267 270 273 276 278 281 282 282 282 284 283 282 282 283 285 288 290 292 294 296 298 299 301 303 305 306 307 308 309 310 311 311 312 313 313 313 312 312 311 311 310 310 309
267 268 270 272 275 278 280 281 281 283 284 284 284 284 286 288 290 292 293 295 297 300 302 303 305 306 308 309 309 310 311 312 312 313 313 313 313 312 312 311 311 311 311 311
268 269 271 273 275 277 278 278 280 282 283 284 285 286 288 290 291 293 295 297 300 302 303 305 306 308 309 310 310 311 312 312 313 314 314 313 313 312 312 312 312 312 312 312
268 270 272 273 274 274 276 278 280 282 284 285 286 288 289 291 293 295 298 300 302 304 305 306 308 309 310 310 311 312 313 314 314 314 314 313 313 312 312 312 313 313 313 313
268 270 271 271 272 274 276 278 281 283 284 286 287 289 291 293 295 298 300 302 304 305 306 307 309 309 310 311 312 313 314 314 314 314 314 313 313 313 313 313 313 314 314 315
268 269 269 270 272 274 276 279 281 283 285 287 289 291 293 295 298 300 302 304 305 306 307 308 309 310 311 312 313 314 314 314 314 314 314 313 313 313 313 313 314 315 316 316